Total_Precipitation_Accumulation
1.80 1.87 1.95 2.05 2.09 2.12 2.15 2.14 2.13 2.14 2.16 2.14 2.24 2.31 2.33 2.34 2.56 2.78 2.66 2.91 3.05 3.08 2.86 2.83 2.81 2.87 2.91 2.75 2.87 2.96 3.08 3.48 3.47 2.73 2.56 2.64 2.80 2.83 2.87 2.72 2.54 2.55 2.32
1.86 1.99 2.02 2.14 2.18 2.11 2.15 2.35 2.35 2.31 2.29 2.28 2.37 2.47 2.39 2.38 2.57 2.58 2.43 2.54 2.74 2.96 3.18 3.33 3.08 3.12 3.15 3.03 3.04 3.01 3.08 3.39 3.44 3.16 2.91 2.86 2.95 2.91 2.94 2.74 2.30 2.17 2.24
1.67 1.86 2.12 2.14 2.19 2.37 2.55 2.70 2.72 2.60 2.53 2.53 2.62 2.56 2.57 2.63 2.62 2.51 2.52 2.56 2.63 2.70 2.98 3.27 3.29 3.51 3.23 3.25 3.19 3.05 3.07 3.10 3.33 3.13 2.89 3.05 3.04 2.99 2.94 2.59 2.39 2.44 2.22
1.78 2.02 2.22 2.44 2.61 2.76 2.77 2.85 2.85 2.81 2.78 2.75 2.75 2.70 2.66 2.71 2.73 2.70 2.70 2.64 2.67 2.63 2.70 2.84 2.99 3.29 3.28 3.38 3.21 3.21 3.33 3.41 3.53 3.36 3.15 3.23 3.34 3.33 3.23 2.86 2.74 2.61 2.44
2.08 2.23 2.30 2.42 2.62 2.91 3.17 3.15 3.05 2.96 2.83 3.00 2.98 2.90 2.90 2.87 2.63 2.80 3.03 2.99 3.03 2.78 2.68 2.64 2.65 2.91 3.00 3.09 2.80 3.01 3.37 3.44 3.50 3.42 3.27 3.29 3.28 3.45 3.18 3.01 2.88 2.88 2.76
2.52 2.66 2.81 2.93 3.07 3.22 3.31 3.37 3.43 3.37 3.29 3.21 3.11 3.15 3.10 2.79 2.93 3.02 2.95 2.99 3.19 3.14 2.96 2.89 2.77 2.71 2.70 2.74 2.74 2.84 3.02 3.04 3.11 3.26 3.17 3.14 3.17 3.33 3.52 3.39 3.23 3.10 2.85
2.66 2.78 2.90 3.02 3.22 3.39 3.47 3.53 3.40 3.38 3.36 3.26 3.23 3.27 3.16 3.17 3.13 2.90 2.76 2.76 2.88 2.96 3.00 2.96 2.60 2.44 2.71 2.59 2.73 2.75 2.57 2.52 2.55 2.73 2.74 2.74 3.22 3.56 3.92 3.55 3.39 3.22 2.93
2.83 2.92 2.99 3.05 3.15 3.37 3.60 3.54 3.41 3.41 3.37 3.34 3.26 3.16 3.09 2.97 3.04 2.79 2.76 2.61 2.57 2.56 2.70 2.81 2.73 2.59 2.64 2.79 2.68 2.40 2.15 2.13 2.21 2.12 2.11 2.37 2.85 3.51 3.87 3.83 3.87 3.61 3.23
2.57 2.75 2.77 2.92 3.11 3.23 3.28 3.32 3.45 3.46 3.27 3.12 3.00 2.99 2.96 3.02 3.29 2.96 2.81 2.55 2.52 2.38 2.43 2.47 2.47 2.31 2.50 2.66 2.53 2.28 2.07 1.95 2.01 2.01 1.97 2.20 2.49 2.86 3.32 3.59 3.53 3.41 2.98
2.52 2.72 2.89 3.04 3.21 3.26 3.31 3.47 3.56 3.55 3.52 3.49 3.35 3.28 3.20 3.16 3.39 3.09 2.90 2.59 2.55 2.49 2.54 2.55 2.59 2.32 2.27 2.23 2.10 2.10 1.92 1.82 1.98 1.95 1.89 1.91 2.03 2.37 2.87 2.97 3.06 3.23 2.94
2.58 2.68 2.82 3.01 3.25 3.53 3.73 3.67 3.67 3.66 3.58 3.41 3.28 3.15 3.13 3.13 3.14 2.93 2.78 2.42 2.33 2.42 2.32 2.25 2.26 2.25 2.00 1.83 1.79 1.75 1.71 1.84 1.95 1.92 1.82 1.79 1.92 2.10 2.27 2.54 2.83 2.92 2.79
2.74 2.84 2.93 3.13 3.21 3.39 3.66 3.67 3.59 3.60 3.50 3.40 3.40 3.38 3.31 3.15 2.86 2.62 2.53 2.38 2.38 2.34 2.34 2.32 2.32 2.30 2.01 1.84 1.65 1.53 1.64 1.69 1.71 1.83 1.74 1.62 1.65 1.76 2.02 2.34 2.68 2.82 2.75
2.72 2.90 3.11 3.25 3.34 3.46 3.61 3.68 3.66 3.59 3.42 3.28 3.19 3.02 3.00 3.02 2.92 2.69 2.41 2.22 2.17 2.01 2.17 2.53 2.55 2.47 2.22 1.90 1.80 1.83 1.79 1.65 1.66 1.68 1.59 1.51 1.56 1.73 2.03 2.39 2.69 2.91 2.86
2.69 2.79 2.98 3.15 3.32 3.50 3.50 3.33 3.18 3.03 2.95 2.93 2.78 2.67 2.69 2.76 2.62 2.52 2.34 2.24 2.25 2.11 2.13 2.45 2.61 2.58 2.41 2.15 2.04 1.97 1.76 1.70 1.78 1.75 1.76 1.81 1.93 2.06 2.21 2.36 2.63 2.82 2.89
2.70 2.78 2.80 2.84 2.95 3.13 3.20 3.13 2.97 2.79 2.65 2.61 2.49 2.51 2.51 2.44 2.46 2.51 2.32 2.17 2.16 2.23 2.31 2.50 2.63 2.72 2.74 2.65 2.54 2.46 2.34 2.20 2.03 1.97 2.05 2.07 2.13 2.21 2.26 2.43 2.70 2.80 2.73
2.78 2.65 2.59 2.54 2.55 2.64 2.66 2.68 2.80 2.66 2.66 2.52 2.39 2.31 2.22 2.25 2.30 2.26 2.13 2.04 2.05 2.20 2.25 2.35 2.60 2.81 2.89 3.00 3.05 2.93 2.69 2.49 2.31 2.30 2.27 2.29 2.32 2.31 2.34 2.50 2.72 2.82 2.67
2.75 2.57 2.49 2.45 2.46 2.42 2.39 2.43 2.57 2.63 2.57 2.46 2.41 2.24 2.08 2.11 2.08 2.04 2.00 1.95 1.98 2.07 2.04 2.17 2.32 2.47 2.70 2.93 3.01 2.98 2.73 2.59 2.62 2.59 2.52 2.53 2.58 2.55 2.52 2.59 2.77 2.89 2.83
2.61 2.69 2.60 2.47 2.50 2.54 2.55 2.52 2.51 2.56 2.54 2.41 2.39 2.33 2.04 1.91 1.89 1.85 1.83 1.74 1.63 1.66 1.72 1.92 2.13 2.30 2.51 2.77 2.96 3.01 2.94 2.85 2.83 2.89 2.88 2.83 2.85 2.73 2.58 2.49 2.63 2.76 2.81
2.51 2.55 2.60 2.58 2.55 2.63 2.65 2.56 2.48 2.40 2.36 2.26 2.18 2.23 2.18 1.98 1.86 1.82 1.78 1.57 1.48 1.50 1.60 1.65 1.76 1.99 2.25 2.51 2.77 2.96 2.96 2.88 2.81 2.87 2.88 2.85 2.89 2.86 2.67 2.50 2.54 2.75 2.80
2.48 2.62 2.54 2.53 2.51 2.48 2.52 2.50 2.48 2.49 2.40 2.29 2.19 2.15 2.12 1.95 1.77 1.86 1.91 1.84 1.73 1.67 1.66 1.68 1.79 1.97 2.19 2.44 2.64 2.76 2.82 2.83 2.79 2.76 2.68 2.63 2.66 2.67 2.53 2.46 2.45 2.53 2.57
2.28 2.39 2.45 2.24 2.24 2.36 2.36 2.38 2.43 2.47 2.44 2.34 2.21 2.17 2.05 1.78 1.82 1.93 2.05 2.10 2.00 1.88 1.80 1.80 1.84 1.92 2.11 2.33 2.49 2.65 2.74 2.77 2.78 2.77 2.72 2.61 2.59 2.61 2.55 2.51 2.50 2.53 2.54
2.28 2.16 2.13 2.15 2.28 2.36 2.43 2.45 2.44 2.37 2.34 2.32 2.26 2.23 2.18 1.84 1.87 1.95 2.02 2.12 2.14 2.12 2.05 2.05 2.04 2.04 2.11 2.28 2.45 2.59 2.65 2.64 2.67 2.74 2.77 2.74 2.73 2.72 2.77 2.79 2.75 2.70 2.68
2.15 2.12 2.05 2.09 2.26 2.42 2.47 2.46 2.47 2.41 2.38 2.39 2.33 2.24 2.17 2.03 2.03 2.13 2.20 2.23 2.23 2.20 2.14 2.12 2.08 2.05 2.07 2.11 2.19 2.36 2.46 2.46 2.45 2.55 2.66 2.62 2.58 2.58 2.65 2.67 2.68 2.71 2.68
1.97 2.07 2.09 2.07 2.15 2.19 2.21 2.22 2.21 2.17 2.17 2.19 2.21 2.25 2.23 2.19 2.22 2.29 2.27 2.24 2.15 2.08 2.08 2.05 2.00 1.96 1.97 2.02 2.04 2.02 2.10 2.21 2.21 2.26 2.37 2.44 2.41 2.38 2.45 2.49 2.58 2.68 2.80
1.81 1.99 2.12 2.10 2.03 2.04 2.02 1.94 1.93 2.00 2.11 2.21 2.24 2.24 2.24 2.21 2.18 2.13 2.05 1.96 1.90 1.94 1.97 1.94 1.90 1.80 1.75 1.76 1.80 1.84 2.02 2.08 2.08 2.06 2.05 2.14 2.19 2.22 2.26 2.33 2.44 2.61 2.79
1.76 1.87 1.93 1.92 1.89 1.91 1.97 1.95 1.92 1.97 2.10 2.15 2.16 2.14 2.13 2.10 2.08 2.03 1.94 1.88 1.84 1.83 1.88 1.91 1.84 1.69 1.63 1.63 1.63 1.70 1.72 1.67 1.75 1.89 1.87 1.90 2.08 2.19 2.21 2.22 2.27 2.41 2.54